Location: Crescent
(42.8242°N, 73.7329°W)
Time: 20:44:40
(UTC+00:00)

Vanguard 2 Rocket - Pass Details

Date: 16 February 2026
Orbit: 553 x 3287 km, 32.9° (Epoch: 7 March)

Event Time Altitude Azimuth Distance (km) Brightness Sun altitude
Rises 15:22:07 0° 204° (SSW) 7,194 11.9 29.8°
Reaches altitude 10° 15:28:17 10° 194° (SSW) 6,224 11.9 30.4°
Maximum altitude 15:42:41 26° 147° (SSE) 4,629 13.0 31.6°
Drops below altitude 10° 15:54:26 10° 99° (E) 5,085 11.2 32.4°
Sets 15:58:42 0° 87° (E) 5,707 11.2 32.7°
